Time,TemperatureF,DewpointF,PressureIn,WindDirection,WindDirectionDegrees,WindSpeedMPH,WindSpeedGustMPH,Humidity,HourlyPrecipIn,Conditions,Clouds,dailyrainin,SoftwareType,DateUTC
2013-07-21 00:01:00,63.7,52.1,32.78,North,0,0.0,0.0,66,0.00,,,-99.99,pyweather 0.1,2013-07-21 07:01:00,
2013-07-21 00:09:00,63.3,52.2,32.78,North,0,0.0,0.0,67,0.00,,,-99.99,pyweather 0.1,2013-07-21 07:09:00,
2013-07-21 00:17:00,63.0,51.8,32.78,North,0,0.0,0.0,67,0.00,,,-99.99,pyweather 0.1,2013-07-21 07:17:00,
2013-07-21 00:25:00,62.6,51.5,32.78,North,0,0.0,0.0,67,0.00,,,-99.99,pyweather 0.1,2013-07-21 07:25:00,
2013-07-21 00:33:00,62.4,52.1,32.78,North,0,0.0,0.0,69,0.00,,,-99.99,pyweather 0.1,2013-07-21 07:33:00,
2013-07-21 00:41:00,62.1,51.8,32.78,North,0,0.0,0.0,69,0.00,,,-99.99,pyweather 0.1,2013-07-21 07:41:00,
2013-07-21 00:49:00,61.9,52.0,32.75,North,0,0.0,0.0,70,0.00,,,-99.99,pyweather 0.1,2013-07-21 07:49:00,
2013-07-21 00:57:00,61.7,51.8,32.75,North,0,0.0,0.0,70,0.00,,,-99.99,pyweather 0.1,2013-07-21 07:57:00,
2013-07-21 01:05:00,61.5,51.7,32.78,North,0,0.0,0.0,70,0.00,,,-99.99,pyweather 0.1,2013-07-21 08:05:00,
2013-07-21 01:13:00,61.3,51.5,32.78,North,0,0.0,0.0,70,0.00,,,-99.99,pyweather 0.1,2013-07-21 08:13:00,
2013-07-21 01:21:00,61.2,51.3,32.78,North,0,0.0,0.0,70,0.00,,,-99.99,pyweather 0.1,2013-07-21 08:21:00,
2013-07-21 01:29:00,61.0,51.1,32.78,North,0,0.0,0.0,70,0.00,,,-99.99,pyweather 0.1,2013-07-21 08:29:00,
2013-07-21 01:38:00,60.8,51.0,32.78,North,0,0.0,0.0,70,0.00,,,-99.99,pyweather 0.1,2013-07-21 08:38:00,
2013-07-21 01:46:00,60.6,51.2,32.78,North,0,0.0,0.0,71,0.00,,,-99.99,pyweather 0.1,2013-07-21 08:46:00,
2013-07-21 01:54:00,60.4,51.0,32.78,North,0,0.0,0.0,71,0.00,,,-99.99,pyweather 0.1,2013-07-21 08:54:00,
2013-07-21 02:02:00,60.3,50.8,32.78,North,0,0.0,0.0,71,0.00,,,-99.99,pyweather 0.1,2013-07-21 09:02:00,
2013-07-21 02:10:00,60.1,51.0,32.78,North,0,0.0,0.0,72,0.00,,,-99.99,pyweather 0.1,2013-07-21 09:10:00,
2013-07-21 02:18:00,59.9,50.9,32.78,North,0,0.0,0.0,72,0.00,,,-99.99,pyweather 0.1,2013-07-21 09:18:00,
2013-07-21 02:26:00,59.7,50.7,32.78,North,0,0.0,0.0,72,0.00,,,-99.99,pyweather 0.1,2013-07-21 09:26:00,
2013-07-21 02:34:00,59.5,50.9,32.78,North,0,0.0,0.0,73,0.00,,,-99.99,pyweather 0.1,2013-07-21 09:34:00,
2013-07-21 02:42:00,59.4,51.1,32.78,North,0,0.0,0.0,74,0.00,,,-99.99,pyweather 0.1,2013-07-21 09:42:00,
2013-07-21 02:50:00,59.2,50.9,32.78,North,0,0.0,0.0,74,0.00,,,-99.99,pyweather 0.1,2013-07-21 09:50:00,
2013-07-21 02:58:00,59.0,50.7,32.78,North,0,0.0,0.0,74,0.00,,,-99.99,pyweather 0.1,2013-07-21 09:58:00,
2013-07-21 03:06:00,59.0,50.7,32.78,North,0,0.0,0.0,74,0.00,,,-99.99,pyweather 0.1,2013-07-21 10:06:00,
2013-07-21 03:14:00,58.8,50.6,32.78,North,0,0.0,0.0,74,0.00,,,-99.99,pyweather 0.1,2013-07-21 10:14:00,
2013-07-21 03:22:00,58.6,50.4,32.78,North,0,0.0,0.0,74,0.00,,,-99.99,pyweather 0.1,2013-07-21 10:22:00,
2013-07-21 03:30:00,58.5,50.2,32.78,North,0,0.0,0.0,74,0.00,,,-99.99,pyweather 0.1,2013-07-21 10:30:00,
2013-07-21 03:38:00,58.5,50.6,32.78,North,0,0.0,0.0,75,0.00,,,-99.99,pyweather 0.1,2013-07-21 10:38:00,
2013-07-21 03:46:00,58.6,50.8,32.78,North,0,0.0,0.0,75,0.00,,,-99.99,pyweather 0.1,2013-07-21 10:46:00,
2013-07-21 03:54:00,58.8,51.3,32.78,North,0,0.0,0.0,76,0.00,,,-99.99,pyweather 0.1,2013-07-21 10:54:00,
2013-07-21 04:02:00,58.8,51.6,32.78,North,0,0.0,0.0,77,0.00,,,-99.99,pyweather 0.1,2013-07-21 11:02:00,
2013-07-21 04:10:00,59.0,51.8,32.78,North,0,0.0,0.0,77,0.00,,,-99.99,pyweather 0.1,2013-07-21 11:10:00,
2013-07-21 04:18:00,59.2,52.0,32.78,North,0,0.0,0.0,77,0.00,,,-99.99,pyweather 0.1,2013-07-21 11:18:00,
2013-07-21 04:26:00,59.2,52.0,32.78,North,0,0.0,0.0,77,0.00,,,-99.99,pyweather 0.1,2013-07-21 11:26:00,
2013-07-21 04:34:00,59.2,51.6,32.78,North,0,0.0,0.0,76,0.00,,,-99.99,pyweather 0.1,2013-07-21 11:34:00,
2013-07-21 04:42:00,59.2,51.6,32.78,North,0,0.0,0.0,76,0.00,,,-99.99,pyweather 0.1,2013-07-21 11:42:00,
2013-07-21 04:50:00,59.2,51.6,32.78,North,0,0.0,0.0,76,0.00,,,-99.99,pyweather 0.1,2013-07-21 11:50:00,
2013-07-21 04:58:00,59.2,52.0,32.78,North,0,0.0,0.0,77,0.00,,,-99.99,pyweather 0.1,2013-07-21 11:58:00,
2013-07-21 05:06:00,59.4,52.2,32.78,North,0,0.0,0.0,77,0.00,,,-99.99,pyweather 0.1,2013-07-21 12:06:00,
2013-07-21 05:14:00,59.4,52.2,32.78,North,0,0.0,0.0,77,0.00,,,-99.99,pyweather 0.1,2013-07-21 12:14:00,
2013-07-21 05:22:00,59.4,51.8,32.78,North,0,0.0,0.0,76,0.00,,,-99.99,pyweather 0.1,2013-07-21 12:22:00,
2013-07-21 05:30:00,59.4,51.8,32.78,North,0,0.0,0.0,76,0.00,,,-99.99,pyweather 0.1,2013-07-21 12:30:00,
2013-07-21 05:38:00,59.5,52.3,32.78,North,0,0.0,0.0,77,0.00,,,-99.99,pyweather 0.1,2013-07-21 12:38:00,
2013-07-21 05:46:00,59.5,52.3,32.78,North,0,0.0,0.0,77,0.00,,,-99.99,pyweather 0.1,2013-07-21 12:46:00,
2013-07-21 05:54:00,59.7,52.5,32.78,North,0,0.0,0.0,77,0.00,,,-99.99,pyweather 0.1,2013-07-21 12:54:00,
2013-07-21 06:02:00,59.7,52.9,32.78,North,0,0.0,0.0,78,0.00,,,-99.99,pyweather 0.1,2013-07-21 13:02:00,
2013-07-21 06:10:00,59.7,52.9,32.78,North,0,0.0,0.0,78,0.00,,,-99.99,pyweather 0.1,2013-07-21 13:10:00,
2013-07-21 06:18:00,59.5,52.7,32.78,North,0,0.0,0.0,78,0.00,,,-99.99,pyweather 0.1,2013-07-21 13:18:00,
2013-07-21 06:26:00,59.7,52.9,32.78,North,0,0.0,0.0,78,0.00,,,-99.99,pyweather 0.1,2013-07-21 13:26:00,
2013-07-21 06:35:00,59.5,52.3,32.78,North,0,0.0,0.0,77,0.00,,,-99.99,pyweather 0.1,2013-07-21 13:35:00,
2013-07-21 06:43:00,59.5,52.7,32.78,North,0,0.0,0.0,78,0.00,,,-99.99,pyweather 0.1,2013-07-21 13:43:00,
2013-07-21 06:51:00,59.7,52.9,32.78,North,0,0.0,0.0,78,0.00,,,-99.99,pyweather 0.1,2013-07-21 13:51:00,
2013-07-21 06:59:00,59.5,52.3,32.78,North,0,0.0,0.0,77,0.00,,,-99.99,pyweather 0.1,2013-07-21 13:59:00,
2013-07-21 07:07:00,59.5,52.7,32.78,North,0,0.0,0.0,78,0.00,,,-99.99,pyweather 0.1,2013-07-21 14:07:00,
2013-07-21 07:15:00,59.5,52.7,32.78,North,0,0.0,0.0,78,0.00,,,-99.99,pyweather 0.1,2013-07-21 14:15:00,
2013-07-21 07:23:00,59.7,52.9,32.78,North,0,0.0,0.0,78,0.00,,,-99.99,pyweather 0.1,2013-07-21 14:23:00,
2013-07-21 07:31:00,59.7,53.2,32.78,North,0,0.0,0.0,79,0.00,,,-99.99,pyweather 0.1,2013-07-21 14:31:00,
2013-07-21 07:39:00,59.7,53.5,32.78,North,0,0.0,0.0,80,0.00,,,-99.99,pyweather 0.1,2013-07-21 14:39:00,
2013-07-21 07:47:00,59.9,53.7,32.78,North,0,0.0,0.0,80,0.00,,,-99.99,pyweather 0.1,2013-07-21 14:47:00,
2013-07-21 07:55:00,59.7,53.2,32.78,North,0,0.0,0.0,79,0.00,,,-99.99,pyweather 0.1,2013-07-21 14:55:00,
2013-07-21 08:03:00,59.5,53.0,32.78,North,0,0.0,0.0,79,0.00,,,-99.99,pyweather 0.1,2013-07-21 15:03:00,
2013-07-21 08:11:00,59.5,53.4,32.78,North,0,0.0,0.0,80,0.00,,,-99.99,pyweather 0.1,2013-07-21 15:11:00,
2013-07-21 08:19:00,59.7,53.5,32.78,North,0,0.0,0.0,80,0.00,,,-99.99,pyweather 0.1,2013-07-21 15:19:00,
2013-07-21 08:27:00,59.9,53.7,32.78,North,0,0.0,0.0,80,0.00,,,-99.99,pyweather 0.1,2013-07-21 15:27:00,
2013-07-21 08:35:00,60.1,53.9,32.78,North,0,0.0,0.0,80,0.00,,,-99.99,pyweather 0.1,2013-07-21 15:35:00,
2013-07-21 08:43:00,60.3,53.7,32.78,North,0,0.0,0.0,79,0.00,,,-99.99,pyweather 0.1,2013-07-21 15:43:00,
2013-07-21 08:51:00,60.3,53.7,32.78,North,0,0.0,0.0,79,0.00,,,-99.99,pyweather 0.1,2013-07-21 15:51:00,
2013-07-21 08:59:00,60.4,53.9,32.78,North,0,0.0,0.0,79,0.00,,,-99.99,pyweather 0.1,2013-07-21 15:59:00,
2013-07-21 09:07:00,60.6,53.4,32.81,North,0,0.0,0.0,77,0.00,,,-99.99,pyweather 0.1,2013-07-21 16:07:00,
2013-07-21 09:15:00,60.6,53.4,32.81,North,0,0.0,0.0,77,0.00,,,-99.99,pyweather 0.1,2013-07-21 16:15:00,
2013-07-21 09:23:00,60.6,53.0,32.81,North,0,0.0,0.0,76,0.00,,,-99.99,pyweather 0.1,2013-07-21 16:23:00,
2013-07-21 09:31:00,60.6,53.0,32.81,North,0,0.0,0.0,76,0.00,,,-99.99,pyweather 0.1,2013-07-21 16:31:00,
2013-07-21 09:39:00,60.8,52.5,32.81,North,0,0.0,0.0,74,0.00,,,-99.99,pyweather 0.1,2013-07-21 16:39:00,
2013-07-21 09:47:00,61.2,53.2,32.78,North,0,0.0,0.0,75,0.00,,,-99.99,pyweather 0.1,2013-07-21 16:47:00,
2013-07-21 09:55:00,61.2,52.8,32.78,North,0,0.0,0.0,74,0.00,,,-99.99,pyweather 0.1,2013-07-21 16:55:00,
2013-07-21 10:03:00,61.3,53.0,32.78,North,0,0.0,0.0,74,0.00,,,-99.99,pyweather 0.1,2013-07-21 17:03:00,
2013-07-21 10:11:00,61.7,53.3,32.78,North,0,0.0,0.0,74,0.00,,,-99.99,pyweather 0.1,2013-07-21 17:11:00,
2013-07-21 10:19:00,62.1,53.3,32.78,North,0,0.0,0.0,73,0.00,,,-99.99,pyweather 0.1,2013-07-21 17:19:00,
2013-07-21 10:27:00,62.4,53.3,32.78,North,0,0.0,0.0,72,0.00,,,-99.99,pyweather 0.1,2013-07-21 17:27:00,
2013-07-21 10:35:00,62.6,52.7,32.78,North,0,0.0,0.0,70,0.00,,,-99.99,pyweather 0.1,2013-07-21 17:35:00,
2013-07-21 10:43:00,63.0,53.0,32.78,North,0,0.0,0.0,70,0.00,,,-99.99,pyweather 0.1,2013-07-21 17:43:00,
2013-07-21 10:51:00,62.8,51.7,32.78,North,0,0.0,0.0,67,0.00,,,-99.99,pyweather 0.1,2013-07-21 17:51:00,
2013-07-21 10:59:00,63.0,52.2,32.78,North,0,0.0,0.0,68,0.00,,,-99.99,pyweather 0.1,2013-07-21 17:59:00,
2013-07-21 11:07:00,63.3,52.2,32.78,North,0,0.0,0.0,67,0.00,,,-99.99,pyweather 0.1,2013-07-21 18:07:00,
2013-07-21 11:15:00,63.3,52.2,32.78,North,0,0.0,0.0,67,0.00,,,-99.99,pyweather 0.1,2013-07-21 18:15:00,
2013-07-21 11:23:00,63.3,52.2,32.78,North,0,0.0,0.0,67,0.00,,,-99.99,pyweather 0.1,2013-07-21 18:23:00,
2013-07-21 11:31:00,63.3,52.2,32.78,North,0,0.0,0.0,67,0.00,,,-99.99,pyweather 0.1,2013-07-21 18:31:00,
2013-07-21 11:39:00,63.5,52.0,32.78,North,0,0.0,0.0,66,0.00,,,-99.99,pyweather 0.1,2013-07-21 18:39:00,
2013-07-21 11:47:00,64.0,52.5,32.78,North,0,0.0,0.0,66,0.00,,,-99.99,pyweather 0.1,2013-07-21 18:47:00,
2013-07-21 11:55:00,64.2,51.8,32.78,North,0,0.0,0.0,64,0.00,,,-99.99,pyweather 0.1,2013-07-21 18:55:00,
2013-07-21 12:03:00,64.2,51.4,32.78,North,0,0.0,0.0,63,0.00,,,-99.99,pyweather 0.1,2013-07-21 19:03:00,
2013-07-21 12:11:00,64.6,52.1,32.78,North,0,0.0,0.0,64,0.00,,,-99.99,pyweather 0.1,2013-07-21 19:11:00,
2013-07-21 12:19:00,65.1,52.2,32.78,North,0,0.0,0.0,63,0.00,,,-99.99,pyweather 0.1,2013-07-21 19:19:00,
2013-07-21 12:27:00,65.7,51.9,32.78,North,0,0.0,0.0,61,0.00,,,-99.99,pyweather 0.1,2013-07-21 19:27:00,
2013-07-21 12:35:00,66.4,51.2,32.78,North,0,0.0,0.0,58,0.00,,,-99.99,pyweather 0.1,2013-07-21 19:35:00,
2013-07-21 12:43:00,66.7,51.5,32.78,North,0,0.0,0.0,58,0.00,,,-99.99,pyweather 0.1,2013-07-21 19:43:00,
2013-07-21 12:51:00,66.9,51.2,32.78,North,0,0.0,0.0,57,0.00,,,-99.99,pyweather 0.1,2013-07-21 19:51:00,
2013-07-21 12:59:00,67.6,51.4,32.78,North,0,0.0,0.0,56,0.00,,,-99.99,pyweather 0.1,2013-07-21 19:59:00,
2013-07-21 13:07:00,68.2,50.9,32.78,North,0,0.0,0.0,54,0.00,,,-99.99,pyweather 0.1,2013-07-21 20:07:00,
2013-07-21 13:15:00,68.7,50.9,32.78,North,0,0.0,0.0,53,0.00,,,-99.99,pyweather 0.1,2013-07-21 20:15:00,
2013-07-21 13:23:00,70.0,51.6,32.78,North,0,0.0,0.0,52,0.00,,,-99.99,pyweather 0.1,2013-07-21 20:23:00,
2013-07-21 13:31:00,71.1,49.3,32.78,North,0,0.0,0.0,46,0.00,,,-99.99,pyweather 0.1,2013-07-21 20:31:00,
2013-07-21 13:39:00,71.6,50.9,32.78,North,0,0.0,0.0,48,0.00,,,-99.99,pyweather 0.1,2013-07-21 20:39:00,
2013-07-21 13:47:00,72.9,49.1,32.78,North,0,0.0,0.0,43,0.00,,,-99.99,pyweather 0.1,2013-07-21 20:47:00,
2013-07-21 13:55:00,72.9,49.7,32.78,North,0,0.0,0.0,44,0.00,,,-99.99,pyweather 0.1,2013-07-21 20:55:00,
2013-07-21 14:03:00,73.2,50.0,32.78,North,0,0.0,0.0,44,0.00,,,-99.99,pyweather 0.1,2013-07-21 21:03:00,
2013-07-21 14:11:00,74.3,50.4,32.78,North,0,0.0,0.0,43,0.00,,,-99.99,pyweather 0.1,2013-07-21 21:11:00,
2013-07-21 14:19:00,74.8,49.6,32.78,North,0,0.0,0.0,41,0.00,,,-99.99,pyweather 0.1,2013-07-21 21:19:00,
2013-07-21 14:28:00,75.4,50.1,32.78,North,0,0.0,0.0,41,0.00,,,-99.99,pyweather 0.1,2013-07-21 21:28:00,
2013-07-21 14:36:00,75.6,49.6,32.78,North,0,0.0,0.0,40,0.00,,,-99.99,pyweather 0.1,2013-07-21 21:36:00,
2013-07-21 14:44:00,75.7,49.0,32.78,North,0,0.0,0.0,39,0.00,,,-99.99,pyweather 0.1,2013-07-21 21:44:00,
2013-07-21 14:52:00,75.7,49.0,32.78,North,0,0.0,0.0,39,0.00,,,-99.99,pyweather 0.1,2013-07-21 21:52:00,
2013-07-21 15:00:00,76.3,49.5,32.78,North,0,0.0,0.0,39,0.00,,,-99.99,pyweather 0.1,2013-07-21 22:00:00,
2013-07-21 15:08:00,76.3,48.8,32.78,North,0,0.0,0.0,38,0.00,,,-99.99,pyweather 0.1,2013-07-21 22:08:00,
2013-07-21 15:16:00,76.6,49.2,32.78,North,0,0.0,0.0,38,0.00,,,-99.99,pyweather 0.1,2013-07-21 22:16:00,
2013-07-21 15:24:00,77.0,50.2,32.78,North,0,0.0,0.0,39,0.00,,,-99.99,pyweather 0.1,2013-07-21 22:24:00,
2013-07-21 15:32:00,77.5,49.2,32.75,North,0,0.0,0.0,37,0.00,,,-99.99,pyweather 0.1,2013-07-21 22:32:00,
2013-07-21 15:40:00,77.2,48.9,32.75,North,0,0.0,0.0,37,0.00,,,-99.99,pyweather 0.1,2013-07-21 22:40:00,
2013-07-21 15:48:00,76.3,48.1,32.75,North,0,0.0,0.0,37,0.00,,,-99.99,pyweather 0.1,2013-07-21 22:48:00,
2013-07-21 15:56:00,76.6,48.4,32.75,North,0,0.0,0.0,37,0.00,,,-99.99,pyweather 0.1,2013-07-21 22:56:00,
2013-07-21 16:04:00,76.3,48.8,32.75,North,0,0.0,0.0,38,0.00,,,-99.99,pyweather 0.1,2013-07-21 23:04:00,
2013-07-21 16:12:00,76.5,48.3,32.75,North,0,0.0,0.0,37,0.00,,,-99.99,pyweather 0.1,2013-07-21 23:12:00,
2013-07-21 16:20:00,77.0,48.0,32.75,North,0,0.0,0.0,36,0.00,,,-99.99,pyweather 0.1,2013-07-21 23:20:00,
2013-07-21 16:28:00,76.8,47.9,32.75,North,0,0.0,0.0,36,0.00,,,-99.99,pyweather 0.1,2013-07-21 23:28:00,
2013-07-21 16:36:00,76.6,48.4,32.75,North,0,0.0,0.0,37,0.00,,,-99.99,pyweather 0.1,2013-07-21 23:36:00,
2013-07-21 16:44:00,76.3,48.1,32.75,North,0,0.0,0.0,37,0.00,,,-99.99,pyweather 0.1,2013-07-21 23:44:00,
2013-07-21 16:52:00,76.5,48.3,32.75,North,0,0.0,0.0,37,0.00,,,-99.99,pyweather 0.1,2013-07-21 23:52:00,
2013-07-21 17:00:00,76.1,48.7,32.75,North,0,0.0,0.0,38,0.00,,,-99.99,pyweather 0.1,2013-07-22 00:00:00,
2013-07-21 17:08:00,76.1,48.7,32.75,North,0,0.0,0.0,38,0.00,,,-99.99,pyweather 0.1,2013-07-22 00:08:00,
2013-07-21 17:16:00,75.9,48.5,32.75,North,0,0.0,0.0,38,0.00,,,-99.99,pyweather 0.1,2013-07-22 00:16:00,
2013-07-21 17:24:00,75.7,49.0,32.75,North,0,0.0,0.0,39,0.00,,,-99.99,pyweather 0.1,2013-07-22 00:24:00,
2013-07-21 17:32:00,75.9,48.5,32.75,North,0,0.0,0.0,38,0.00,,,-99.99,pyweather 0.1,2013-07-22 00:32:00,
2013-07-21 17:40:00,75.9,48.5,32.75,North,0,0.0,0.0,38,0.00,,,-99.99,pyweather 0.1,2013-07-22 00:40:00,
2013-07-21 17:48:00,75.9,48.5,32.72,North,0,0.0,0.0,38,0.00,,,-99.99,pyweather 0.1,2013-07-22 00:48:00,
2013-07-21 17:56:00,76.1,49.4,32.72,North,0,0.0,0.0,39,0.00,,,-99.99,pyweather 0.1,2013-07-22 00:56:00,
2013-07-21 18:04:00,76.1,48.7,32.72,North,0,0.0,0.0,38,0.00,,,-99.99,pyweather 0.1,2013-07-22 01:04:00,
2013-07-21 18:12:00,76.1,48.7,32.72,North,0,0.0,0.0,38,0.00,,,-99.99,pyweather 0.1,2013-07-22 01:12:00,
2013-07-21 18:20:00,75.9,48.5,32.72,North,0,0.0,0.0,38,0.00,,,-99.99,pyweather 0.1,2013-07-22 01:20:00,
2013-07-21 18:28:00,76.1,48.7,32.72,North,0,0.0,0.0,38,0.00,,,-99.99,pyweather 0.1,2013-07-22 01:28:00,
2013-07-21 18:36:00,75.7,48.4,32.72,North,0,0.0,0.0,38,0.00,,,-99.99,pyweather 0.1,2013-07-22 01:36:00,
2013-07-21 18:44:00,75.6,48.9,32.72,North,0,0.0,0.0,39,0.00,,,-99.99,pyweather 0.1,2013-07-22 01:44:00,
2013-07-21 18:52:00,75.7,49.0,32.72,North,0,0.0,0.0,39,0.00,,,-99.99,pyweather 0.1,2013-07-22 01:52:00,
2013-07-21 19:00:00,75.6,48.9,32.72,North,0,0.0,0.0,39,0.00,,,-99.99,pyweather 0.1,2013-07-22 02:00:00,
2013-07-21 19:08:00,75.2,48.6,32.72,North,0,0.0,0.0,39,0.00,,,-99.99,pyweather 0.1,2013-07-22 02:08:00,
2013-07-21 19:16:00,75.0,49.1,32.72,North,0,0.0,0.0,40,0.00,,,-99.99,pyweather 0.1,2013-07-22 02:16:00,
2013-07-21 19:24:00,74.8,49.6,32.72,North,0,0.0,0.0,41,0.00,,,-99.99,pyweather 0.1,2013-07-22 02:24:00,
2013-07-21 19:32:00,74.7,49.4,32.72,North,0,0.0,0.0,41,0.00,,,-99.99,pyweather 0.1,2013-07-22 02:32:00,
2013-07-21 19:40:00,74.3,49.1,32.72,North,0,0.0,0.0,41,0.00,,,-99.99,pyweather 0.1,2013-07-22 02:40:00,
2013-07-21 19:48:00,73.9,48.8,32.72,North,0,0.0,0.0,41,0.00,,,-99.99,pyweather 0.1,2013-07-22 02:48:00,
2013-07-21 19:56:00,73.6,48.5,32.72,North,0,0.0,0.0,41,0.00,,,-99.99,pyweather 0.1,2013-07-22 02:56:00,
2013-07-21 20:04:00,73.2,49.4,32.72,North,0,0.0,0.0,43,0.00,,,-99.99,pyweather 0.1,2013-07-22 03:04:00,
2013-07-21 20:12:00,72.9,49.1,32.72,North,0,0.0,0.0,43,0.00,,,-99.99,pyweather 0.1,2013-07-22 03:12:00,
2013-07-21 20:20:00,72.3,49.2,32.72,North,0,0.0,0.0,44,0.00,,,-99.99,pyweather 0.1,2013-07-22 03:20:00,
2013-07-21 20:28:00,72.0,49.5,32.72,North,0,0.0,0.0,45,0.00,,,-99.99,pyweather 0.1,2013-07-22 03:28:00,
2013-07-21 20:36:00,71.4,50.2,32.72,North,0,0.0,0.0,47,0.00,,,-99.99,pyweather 0.1,2013-07-22 03:36:00,
2013-07-21 20:44:00,70.9,50.2,32.72,North,0,0.0,0.0,48,0.00,,,-99.99,pyweather 0.1,2013-07-22 03:44:00,
2013-07-21 20:52:00,70.3,50.3,32.72,North,0,0.0,0.0,49,0.00,,,-99.99,pyweather 0.1,2013-07-22 03:52:00,
2013-07-21 21:00:00,70.0,50.5,32.72,North,0,0.0,0.0,50,0.00,,,-99.99,pyweather 0.1,2013-07-22 04:00:00,
2013-07-21 21:08:00,69.6,50.7,32.72,North,0,0.0,0.0,51,0.00,,,-99.99,pyweather 0.1,2013-07-22 04:08:00,
2013-07-21 21:16:00,69.1,50.7,32.72,North,0,0.0,0.0,52,0.00,,,-99.99,pyweather 0.1,2013-07-22 04:16:00,
2013-07-21 21:24:00,68.7,51.4,32.72,North,0,0.0,0.0,54,0.00,,,-99.99,pyweather 0.1,2013-07-22 04:24:00,
2013-07-21 21:32:00,68.4,51.1,32.72,North,0,0.0,0.0,54,0.00,,,-99.99,pyweather 0.1,2013-07-22 04:32:00,
2013-07-21 21:40:00,68.0,51.2,32.72,North,0,0.0,0.0,55,0.00,,,-99.99,pyweather 0.1,2013-07-22 04:40:00,
2013-07-21 21:48:00,67.6,51.9,32.75,North,0,0.0,0.0,57,0.00,,,-99.99,pyweather 0.1,2013-07-22 04:48:00,
2013-07-21 21:56:00,67.5,52.2,32.75,North,0,0.0,0.0,58,0.00,,,-99.99,pyweather 0.1,2013-07-22 04:56:00,
2013-07-21 22:04:00,67.1,52.3,32.75,North,0,0.0,0.0,59,0.00,,,-99.99,pyweather 0.1,2013-07-22 05:04:00,
2013-07-21 22:12:00,66.9,52.1,32.75,North,0,0.0,0.0,59,0.00,,,-99.99,pyweather 0.1,2013-07-22 05:12:00,
2013-07-21 22:20:00,66.6,52.7,32.75,North,0,0.0,0.0,61,0.00,,,-99.99,pyweather 0.1,2013-07-22 05:20:00,
2013-07-21 22:29:00,66.4,53.0,32.75,North,0,0.0,0.0,62,0.00,,,-99.99,pyweather 0.1,2013-07-22 05:29:00,
2013-07-21 22:37:00,66.2,52.8,32.75,North,0,0.0,0.0,62,0.00,,,-99.99,pyweather 0.1,2013-07-22 05:37:00,
2013-07-21 22:45:00,66.2,52.8,32.75,North,0,0.0,0.0,62,0.00,,,-99.99,pyweather 0.1,2013-07-22 05:45:00,
2013-07-21 22:53:00,66.0,53.5,32.75,North,0,0.0,0.0,64,0.00,,,-99.99,pyweather 0.1,2013-07-22 05:53:00,
2013-07-21 23:01:00,65.7,53.2,32.75,North,0,0.0,0.0,64,0.00,,,-99.99,pyweather 0.1,2013-07-22 06:01:00,
2013-07-21 23:09:00,65.3,53.2,32.75,North,0,0.0,0.0,65,0.00,,,-99.99,pyweather 0.1,2013-07-22 06:09:00,
2013-07-21 23:17:00,65.1,53.5,32.75,North,0,0.0,0.0,66,0.00,,,-99.99,pyweather 0.1,2013-07-22 06:17:00,
2013-07-21 23:25:00,64.9,53.3,32.75,North,0,0.0,0.0,66,0.00,,,-99.99,pyweather 0.1,2013-07-22 06:25:00,
2013-07-21 23:33:00,64.8,53.6,32.72,North,0,0.0,0.0,67,0.00,,,-99.99,pyweather 0.1,2013-07-22 06:33:00,
2013-07-21 23:41:00,64.4,53.6,32.72,North,0,0.0,0.0,68,0.00,,,-99.99,pyweather 0.1,2013-07-22 06:41:00,
2013-07-21 23:49:00,64.2,53.8,32.75,North,0,0.0,0.0,69,0.00,,,-99.99,pyweather 0.1,2013-07-22 06:49:00,
2013-07-21 23:57:00,64.0,53.7,32.75,North,0,0.0,0.0,69,0.00,,,-99.99,pyweather 0.1,2013-07-22 06:57:00,